Location: Bennemühlen
(52.5740°N, 9.7135°E)
Time: 23:39:12
(UTC+00:00)

Tiros 1 despin weight - All Passes

Search period start: 16 February 2026 00:00
Search period end: 26 February 2026 00:00
Orbit: 557 x 594 km, 48.2° (Epoch: 15 February)

Date Brightness Start Highest point End Pass type
(mag) Time Alt. Az. Time Alt. Az. Time Alt. Az.
16 Feb - 15:26:05 10° SSW 15:29:28 24° SSE 15:32:51 10° E daylight
16 Feb - 17:05:28 10° WSW 17:09:28 44° S 17:13:29 10° E visible
16 Feb - 18:45:43 10° W 18:49:39 40° SSW 18:53:37 10° ESE visible
16 Feb - 20:26:35 10° WSW 20:29:33 19° SSW 20:32:31 10° SSE visible
17 Feb - 13:51:38 10° SSE 13:52:11 10° SE 13:52:43 10° SE daylight
17 Feb - 15:28:08 10° SW 15:31:48 29° SSE 15:35:28 10° E daylight
17 Feb - 17:07:51 10° WSW 17:11:53 46° S 17:15:56 10° ESE visible
17 Feb - 18:48:12 10° W 18:52:02 35° SSW 18:55:53 10° SE visible
17 Feb - 20:29:34 10° WSW 20:31:48 14° SW 20:34:01 10° S visible
18 Feb - 13:52:05 10° S 13:54:23 14° SE 13:56:41 10° ESE daylight
18 Feb - 15:30:18 10° SW 15:34:09 35° SSE 15:38:00 10° E daylight
18 Feb - 17:10:16 10° WSW 17:14:18 46° S 17:18:20 10° ESE visible
18 Feb - 18:50:44 10° W 18:54:24 29° SSW 18:58:02 10° SE visible
19 Feb - 13:53:37 10° SSW 13:56:37 19° SSE 13:59:37 10° ESE daylight
19 Feb - 15:32:34 10° WSW 15:36:32 40° SSE 15:40:28 10° E daylight
19 Feb - 17:12:42 10° W 17:16:42 44° S 17:20:42 10° ESE visible
19 Feb - 18:53:20 10° W 18:56:42 23° SSW 19:00:03 10° SSE visible
20 Feb - 13:55:27 10° SSW 13:58:53 24° SSE 14:02:19 10° E daylight
20 Feb - 15:34:53 10° WSW 15:38:54 44° S 15:42:55 10° E daylight
20 Feb - 17:15:08 10° W 17:19:05 39° SSW 17:23:01 10° SE visible
20 Feb - 18:56:03 10° WSW 18:58:57 18° SSW 19:01:51 10° SSE visible
21 Feb - 12:20:36 10° SSE 12:21:33 11° SE 12:22:30 10° SE daylight
21 Feb - 13:57:29 10° SW 14:01:12 30° SSE 14:04:53 10° E daylight
21 Feb - 15:37:14 10° WSW 15:41:17 46° S 15:45:19 10° ESE daylight
21 Feb - 17:17:36 10° W 17:21:25 34° SSW 17:25:14 10° SE visible
21 Feb - 18:59:03 10° WSW 19:01:10 14° SW 19:03:16 10° S visible
22 Feb - 12:21:19 10° S 12:23:43 15° SE 12:26:07 10° ESE daylight
22 Feb - 13:59:38 10° SW 14:03:30 36° SSE 14:07:22 10° E daylight
22 Feb - 15:39:37 10° WSW 15:43:40 46° S 15:47:41 10° ESE daylight
22 Feb - 17:20:06 10° W 17:23:44 28° SSW 17:27:21 10° SE visible
23 Feb - 12:22:52 10° SSW 12:25:56 20° SSE 12:29:00 10° ESE daylight
23 Feb - 14:01:52 10° WSW 14:05:51 41° SSE 14:09:49 10° E daylight
23 Feb - 15:42:01 10° W 15:46:02 43° S 15:50:02 10° ESE daylight
23 Feb - 17:22:41 10° W 17:26:00 23° SSW 17:29:20 10° SSE visible
24 Feb - 12:24:41 10° SSW 12:28:10 25° SSE 12:31:39 10° E daylight
24 Feb - 14:04:10 10° WSW 14:08:12 45° S 14:12:12 10° ESE daylight
24 Feb - 15:44:26 10° W 15:48:23 39° SSW 15:52:17 10° SE daylight
24 Feb - 17:25:23 10° WSW 17:28:14 18° SSW 17:31:04 10° S visible
25 Feb - 10:49:33 10° SSE 10:50:47 11° SE 10:52:01 10° SE daylight
25 Feb - 12:26:42 10° SW 12:30:26 31° SSE 12:34:10 10° E daylight
25 Feb - 14:06:29 10° WSW 14:10:33 47° S 14:14:35 10° ESE daylight
25 Feb - 15:46:52 10° W 15:50:41 34° SSW 15:54:29 10° SE daylight
25 Feb - 17:28:24 10° WSW 17:30:24 13° SW 17:32:24 10° S visible
